Massena, NY

6:01 AM EDT on September 30, 2016 (GMT -0400)
Massena International-Richards

Weather History for KMSS - May, 2014

Change the Weather History Date:

Saturday, May 3, 2014

  Actual Average Record
Temperature  
Mean Temperature 54 °F 51 °F  
Max Temperature 60 °F 63 °F 86 °F (2001)
Min Temperature 47 °F 39 °F 28 °F (1966)
Degree Days  
Heating Degree Days 12 14  
Month to date heating degree days 44  
Since 1 July heating degree days 7826  
Cooling Degree Days 0 0  
Month to date cooling degree days 0 0  
Year to date cooling degree days 0 1  
Growing Degree Days 4 (Base 50)    
Moisture  
Dew Point 45 °F    
Average Humidity 74    
Maximum Humidity 86    
Minimum Humidity 62    
Precipitation  
Precipitation T in 0.09 in 1.14 in (1954)
Month to date precipitation 0.29 0.28  
Year to date precipitation 8.11 9.14  
Sea Level Pressure  
Sea Level Pressure 29.73 in    
Wind  
Wind Speed 10 mph (SSW)    
Max Wind Speed 26 mph    
Max Gust Speed 33 mph    
Visibility 10 miles    
Events Rain    
T = Trace of Precipitation, MM = Missing Value Source: NWS Daily Summary

Daily Weather History Graph

Daily Weather History Graph

Search for Another Location

Airport or City:

Trip Planner

Search our weather history database for the weather conditions in past years. The results will help you decide how hot, cold, wet, or windy it might be!

Date:

Astronomy

May. 03, 2014 Rise Set
Actual Time 5:45 AM EDT 8:07 PM EDT
Civil Twilight 5:13 AM EDT 8:39 PM EDT
Nautical Twilight 4:32 AM EDT 9:20 PM EDT
Astronomical Twilight 3:47 AM EDT 10:06 PM EDT
Moon 9:11 AM EDT (5/3) No Moon Set
Length of Visible Light 15h 26m
Length of Day
14h 21m
Waxing Crescent, 19% of the Moon is Illuminated
May 3
Waxing Crescent
May 6
First Quarter
May 14
Full
May 21
Last Quarter
May 28
New

Hourly Weather History & Observations

Time (EDT) Temp. Dew Point Humidity Pressure Visibility Wind Dir Wind Speed Gust Speed Precip Events Conditions
12:53 AM 48.0 °F 44.1 °F 86% 29.77 in 10.0 mi SW 10.4 mph - N/A   Overcast
1:53 AM 48.9 °F 44.1 °F 83% 29.77 in 10.0 mi SW 10.4 mph - N/A   Overcast
2:53 AM 48.9 °F 45.0 °F 86% 29.76 in 10.0 mi SW 10.4 mph - N/A   Overcast
3:53 AM 48.0 °F 45.0 °F 89% 29.76 in 10.0 mi SSW 9.2 mph - N/A   Overcast
4:53 AM 48.0 °F 44.1 °F 86% 29.77 in 10.0 mi SSW 9.2 mph - N/A   Overcast
5:53 AM 48.2 °F 44.6 °F 87% 29.77 in 10.0 mi SSW 9.2 mph - N/A   Overcast
6:53 AM 48.9 °F 44.1 °F 83% 29.78 in 10.0 mi SSW 9.2 mph - N/A   Overcast
7:33 AM 50.0 °F 43.0 °F 77% 29.78 in 10.0 mi SSW 8.1 mph - N/A   Overcast
7:53 AM 50.0 °F 43.0 °F 77% 29.78 in 10.0 mi SSW 10.4 mph - N/A   Overcast
8:05 AM 50.0 °F 44.1 °F 80% 29.78 in 10.0 mi SSW 10.4 mph - N/A   Overcast
8:45 AM 51.1 °F 44.1 °F 77% 29.78 in 10.0 mi SSW 11.5 mph - N/A   Overcast
8:53 AM 51.1 °F 44.1 °F 77% 29.78 in 10.0 mi SSW 10.4 mph - N/A   Overcast
9:06 AM 52.0 °F 45.0 °F 77% 29.78 in 10.0 mi SSW 11.5 mph - N/A   Overcast
9:53 AM 54.0 °F 45.0 °F 72% 29.78 in 10.0 mi SSW 15.0 mph 20.7 mph N/A   Overcast
10:38 AM 55.0 °F 44.1 °F 67% 29.76 in 10.0 mi SSW 15.0 mph - N/A   Overcast
10:49 AM 55.4 °F 44.6 °F 67% 29.76 in 10.0 mi SSW 16.1 mph - N/A   Overcast
10:53 AM 55.9 °F 45.0 °F 67% 29.77 in 10.0 mi SSW 12.7 mph - N/A   Overcast
11:06 AM 55.9 °F 45.0 °F 67% 29.75 in 10.0 mi SW 13.8 mph - N/A   Overcast
11:53 AM 57.0 °F 45.0 °F 64% 29.75 in 10.0 mi SW 15.0 mph 21.9 mph N/A   Mostly Cloudy
12:53 PM 57.0 °F 45.0 °F 64% 29.73 in 10.0 mi SSW 12.7 mph - 0.00 in Rain Light Rain
1:53 PM 54.0 °F 44.1 °F 69% 29.72 in 10.0 mi SW 11.5 mph - 0.00 in Rain Light Rain
2:53 PM 59.0 °F 44.1 °F 58% 29.70 in 10.0 mi SSW 18.4 mph - 0.00 in   Scattered Clouds
3:53 PM 55.9 °F 46.0 °F 69% 29.69 in 10.0 mi South 15.0 mph - N/A   Overcast
4:01 PM 57.0 °F 46.9 °F 69% 29.68 in 10.0 mi South 11.5 mph - N/A   Mostly Cloudy
4:53 PM 57.9 °F 45.0 °F 62% 29.68 in 10.0 mi South 8.1 mph - N/A   Mostly Cloudy
5:53 PM 57.0 °F 46.0 °F 67% 29.68 in 10.0 mi South 9.2 mph - N/A   Partly Cloudy
6:53 PM 55.9 °F 45.0 °F 67% 29.68 in 10.0 mi South 6.9 mph - N/A   Mostly Cloudy
7:53 PM 55.0 °F 45.0 °F 69% 29.68 in 10.0 mi SSE 3.5 mph - N/A   Overcast
8:53 PM 54.0 °F 46.0 °F 75% 29.67 in 10.0 mi SSE 4.6 mph - N/A   Overcast
9:53 PM 53.1 °F 46.0 °F 77% 29.66 in 10.0 mi SSE 4.6 mph - N/A   Overcast
10:53 PM 53.1 °F 46.0 °F 77% 29.64 in 10.0 mi South 5.8 mph - N/A   Overcast
11:53 PM 51.1 °F 45.0 °F 80% 29.62 in 10.0 mi SSE 4.6 mph - N/A   Scattered Clouds